Location: 10033 Water Well
(34.0865°N, 106.8959°W)
Time: 15:45:26
(UTC+00:00)

USA 267 - Pass Details

Date: 13 January 2026
Orbit: 1101 x 1107 km, 123.0° (Epoch: 10 January)

Event Time Altitude Azimuth Distance (km) Brightness Sun altitude
Exits shadow 01:55:39 27° 47° (NE) 1,987 4.1 -19.7°
Maximum altitude 01:56:41 28° 32° (NNE) 1,938 4.2 -19.9°
Drops below altitude 10° 02:02:02 10° 336° (NNW) 2,962 5.6 -21.0°
Sets 02:04:52 0° 326° (NW) 3,921 6.4 -21.6°
